User: anonymous   Login
Location: Bijele Vode
(45.2833°N, 16.2000°E)
Time: 11:20:46
(UTC+00:00)
Language:

Sich 1 Rocket - Orbit

View from above orbital plane
View from above orbital plane
View from above satellite
View from above satellite

Ground track
Ground track

The orbit data is extracted from the following two-line orbital elements,

1 23659U 95046C   21170.66207352  .00000077  00000-0  72420-5 0  9995
2 23659  82.5305  27.4301 0026876 124.5713 293.6964 14.78377379390444
Epoch (UTC): 19 June 2021 15:53:23
Eccentricity: 0.0026876
inclination: 82.5305°
perigee height: 615 km
apogee height: 653 km
right ascension of ascending node: 27.4301°
argument of perigee: 124.5713°
revolutions per day: 14.78377379
mean anomaly at epoch: 293.6964°
orbit number at epoch: 39044

The dashed part of the orbit path shows where the satellite is in the earth's shadow,  

DLR